FW3129 Weather Reports


Display with metric or nautical units.
time (UTC)temp
F
wind
direction
speed
MPH
gust
MPH
rain 1hr
in
rain 24hr
in
rain mn
in
humidity
%
barometer
mb
20260505153028 84 98 2.0 8.0 0.00 0.01 0.00 77 1017.0
20260505151531 82 94 2.0 7.0 0.00 0.01 0.00 79 1017.0
20260505124528 81 0 0.0 3.0 0.00 0.01 0.00 83 1016.0
20260505123029 79 1 0.0 5.0 0.00 0.01 0.00 85 1016.0
20260505121529 78 23 0.0 3.0 0.00 0.01 0.00 88 1015.8
20260505120028 77 352 0.0 3.0 0.00 0.01 0.00 90 1015.8
20260505114530 75 0 0.0 1.0 0.00 0.01 0.00 93 1015.7
20260505113028 74 37 0.0 2.0 0.00 0.01 0.00 94 1015.6
20260505111526 74 0 0.0 1.0 0.00 0.01 0.00 95 1015.6
20260505101529 73 0 0.0 1.0 0.00 0.01 0.00 95 1015.0
20260505100027 73 0 0.0 1.0 0.00 0.01 0.00 95 1014.7
20260505094529 73 0 0.0 1.0 0.00 0.01 0.00 95 1014.9
20260505093039 73 0 0.0 1.0 0.00 0.01 0.00 94 1014.7
20260505091530 73 0 0.0 0.0 0.00 0.01 0.00 94 1014.6
20260505090028 73 57 0.0 1.0 0.00 0.01 0.00 94 1014.5
20260505084530 73 57 0.0 1.0 0.00 0.01 0.00 94 1014.5
20260505083032 74 0 0.0 2.0 0.00 0.01 0.00 93 1014.4
20260505081531 74 0 0.0 1.0 0.00 0.01 0.00 93 1014.7
20260505080030 74 0 0.0 3.0 0.00 0.01 0.00 93 1014.6
20260505074528 74 122 0.0 1.0 0.00 0.17 0.00 92 1014.8
20260505073036 74 0 0.0 1.0 0.00 0.17 0.00 92 1014.8
20260505071528 74 0 0.0 2.0 0.00 0.17 0.00 91 1014.8
20260505070028 74 0 0.0 1.0 0.00 0.17 0.00 89 1014.5
20260505064528 75 79 0.0 1.0 0.00 0.17 0.00 87 1014.7
20260505063030 76 0 0.0 1.0 0.00 0.17 0.00 85 1015.2
20260505061528 76 0 0.0 1.0 0.00 0.17 0.00 84 1015.3
20260505060032 76 0 0.0 2.0 0.00 0.17 0.00 84 1015.5
20260505054537 76 0 0.0 1.0 0.00 0.17 0.00 85 1015.7
20260505053039 76 0 0.0 1.0 0.00 0.17 0.00 84 1015.9
20260505051531 76 0 0.0 1.0 0.00 0.17 0.00 84 1016.1
20260505041529 77 44 1.0 5.0 0.00 0.17 0.00 82 1016.1
20260505040028 77 70 0.0 5.0 0.00 0.17 0.00 83 1016.3
20260505034530 77 0 1.0 5.0 0.00 0.17 0.17 83 1016.3
20260505033045 77 60 2.0 8.0 0.00 0.17 0.17 83 1016.2
20260505031528 77 91 3.0 9.0 0.00 0.17 0.17 84 1016.1
20260505030030 76 66 1.0 4.0 0.00 0.17 0.17 86 1016.2
20260505024529 77 22 2.0 5.0 0.00 0.17 0.17 86 1016.2
20260505023028 77 44 1.0 9.0 0.00 0.17 0.17 87 1016.2
20260505021529 77 81 2.0 7.0 0.00 0.17 0.17 86 1016.0
20260505020030 77 63 0.0 3.0 0.00 0.17 0.17 87 1016.2
20260505014532 77 84 0.0 8.0 0.00 0.17 0.17 86 1016.0
20260505013030 77 113 1.0 5.0 0.00 0.17 0.17 86 1015.9
20260505011527 77 72 2.0 8.0 0.00 0.17 0.17 86 1016.0
20260505010028 77 68 1.0 8.0 0.00 0.17 0.17 85 1016.1
20260505004541 77 58 2.0 6.0 0.00 0.17 0.17 83 1015.7
20260505003029 77 101 2.0 10.0 0.00 0.17 0.17 82 1015.7
20260505001527 77 79 5.0 9.0 0.00 0.17 0.17 81 1015.6
20260505000028 77 0 1.0 9.0 0.00 0.17 0.17 81 1015.5
20260504234536 77 86 5.0 9.0 0.00 0.38 0.17 80 1015.4
20260504233031 78 60 3.0 11.0 0.00 0.38 0.17 81 1015.1
20260504231540 78 60 4.0 8.0 0.00 0.38 0.17 81 1015.1
20260504230029 78 82 3.0 11.0 0.00 0.38 0.17 80 1015.4
20260504224530 78 49 5.0 16.0 0.00 0.48 0.17 81 1015.5
20260504223030 79 99 1.0 13.0 0.00 0.48 0.17 81 1015.4
20260504221529 78 65 3.0 12.0 0.00 0.48 0.17 81 1015.2
20260504220029 79 77 3.0 12.0 0.00 0.48 0.17 81 1014.9
20260504214537 78 53 3.0 9.0 0.00 0.48 0.17 81 1015.0
20260504213030 79 69 4.0 13.0 0.00 0.48 0.17 81 1015.0
20260504211529 79 50 6.0 15.0 0.00 0.48 0.17 80 1015.1
20260504210028 79 51 7.0 14.0 0.00 0.48 0.17 81 1015.4
20260504204556 79 84 5.0 12.0 0.00 0.48 0.17 80 1015.5
20260504203031 79 84 5.0 13.0 0.00 0.48 0.17 79 1015.6
20260504201528 80 80 5.0 16.0 0.00 0.48 0.17 79 1015.7
20260504200036 79 49 3.0 14.0 0.00 0.48 0.17 81 1015.7
20260504194534 79 47 6.0 12.0 0.00 0.48 0.17 81 1015.9
20260504193032 79 57 7.0 14.0 0.00 0.48 0.17 81 1015.9
20260504191529 79 39 6.0 15.0 0.00 0.48 0.17 80 1016.2
20260504190034 78 77 5.0 17.0 0.00 0.48 0.17 84 1016.4
20260504184528 79 52 8.0 15.0 0.01 0.54 0.17 82 1016.5
20260504183030 79 72 3.0 12.0 0.01 0.54 0.17 85 1016.6
20260504181529 78 34 4.0 10.0 0.01 0.54 0.17 87 1016.6
20260504180030 79 64 6.0 14.0 0.00 0.52 0.16 83 1016.9
20260504174530 82 75 4.0 12.0 0.00 0.52 0.16 77 1016.7
20260504173027 81 72 3.0 8.0 0.00 0.52 0.16 80 1016.9
20260504171538 81 91 3.0 13.0 0.00 0.52 0.16 79 1017.1